CAPE
1214 1279 1340 640 668 609 535 669 913 486 566 1111 470 1106 899 884 1086 1100 1505 1499 967 661 260 63 265 436 510 589 594 540 492 505 488 389 299 82 56 27
992 1066 1453 764 847 913 729 948 1013 701 565 510 842 708 1047 1095 860 1114 1205 1748 1359 860 624 228 110 73 143 512 580 580 463 434 450 265 95 0 0 16
1397 1285 1357 1339 853 689 1174 827 1023 1046 799 640 578 674 1212 1674 1386 1465 1475 1376 1337 1057 652 388 161 7 388 431 458 526 504 423 303 154 28 0 0 1
1417 1388 1268 1212 1301 1133 1011 799 858 1029 913 751 814 675 804 1088 1422 1715 1534 952 851 936 1158 806 352 267 321 246 244 327 448 361 225 94 6 0 0 0
1775 1638 1460 1344 1452 997 1094 869 679 972 1086 1131 773 574 524 789 1209 1717 1836 1530 1016 785 948 782 453 406 175 122 78 96 232 174 138 46 0 0 0 0
1768 1774 1720 1643 1560 1519 1313 1151 1144 981 861 757 663 524 590 764 1199 1054 1213 1441 937 596 713 677 776 466 219 106 44 0 67 97 28 0 0 0 0 0
1758 1849 1824 1693 1497 1444 1191 1119 1173 1083 1124 875 709 680 747 723 990 1026 983 883 1226 1181 891 1069 1265 970 814 55 160 42 10 0 0 0 0 0 0 0
1677 1663 1620 1482 1361 1034 820 598 738 1213 1283 1219 1153 943 950 1066 1135 1008 1091 1153 950 932 929 806 913 527 750 639 332 52 0 0 0 0 0 0 0 0
1242 1346 1261 1089 1161 1453 842 94 0 0 0 171 417 632 585 640 783 733 698 1066 930 889 721 546 546 419 335 189 0 0 0 0 0 0 0 0 0 0
1018 1138 1583 1967 1581 643 101 56 18 3 2 0 0 0 4 8 10 31 38 48 62 93 128 16 44 145 2 2 1 0 0 0 0 0 0 0 0 0
1400 1887 1572 694 45 0 0 0 5 1 0 0 0 0 0 0 0 0 0 0 0 0 1 19 25 0 1 1 3 0 0 0 0 0 0 0 0 0
1634 931 70 0 0 0 0 1 2 0 0 0 0 0 0 0 0 0 0 0 0 2 3 28 0 0 0 2 2 1 0 0 0 0 0 0 0 1
653 530 383 0 0 0 0 0 0 0 0 1 3 1 2 2 3 6 2 8 5 3 8 33 35 4 12 1 2 2 0 1 1 2 0 1 0 0
310 36 0 0 0 0 0 0 0 0 1 3 1 5 4 1 9 4 11 23 27 27 18 18 24 17 1 0 0 2 3 3 3 4 4 1 0 0
19 1 0 0 0 0 0 0 0 1 0 0 4 3 5 3 9 17 23 8 7 16 13 0 11 20 1 2 0 1 1 3 4 4 4 3 2 0
0 0 0 0 0 0 0 0 0 2 1 0 1 7 5 4 2 3 5 8 1 4 0 0 0 7 3 5 0 1 3 0 4 5 4 2 0 0
0 0 0 0 0 4 4 2 3 5 3 1 1 2 3 4 2 1 1 3 2 0 0 0 0 1 0 0 1 3 4 3 5 4 3 3 1 0
0 0 0 0 0 0 1 5 0 4 6 5 0 7 4 4 3 2 1 2 1 0 0 1 0 0 2 2 1 4 5 3 4 4 2 4 2 0
0 0 0 0 0 0 4 4 0 8 10 11 4 3 3 3 2 4 2 2 1 2 2 3 1 2 0 0 5 1 1 4 4 4 2 2 3 0
0 0 0 0 0 0 0 2 4 10 11 9 7 2 4 4 3 4 4 2 3 3 3 3 2 1 2 2 0 5 0 3 4 4 3 2 0 0
0 0 0 0 0 0 1 5 5 6 8 8 0 1 1 7 3 4 4 4 4 5 4 4 1 0 0 0 0 7 3 1 1 3 3 2 0 0
0 0 0 0 0 0 2 4 1 1 0 2 1 6 2 1 3 4 4 4 5 4 3 2 2 0 0 0 1 5 5 2 0 0 0 0 0 4
0 0 0 0 0 0 0 1 5 7 8 3 0 0 2 6 3 2 3 3 3 3 2 2 0 0 0 0 1 5 5 4 4 3 1 0 0 0
CIN
0 -4 -4 -1 -2 -2 -3 -3 -1 -2 -2 -1 -3 -6 -2 -1 -8 -14 -4 -28 -86 -129 -170 -212 -169 -136 -106 -89 -70 -62 -50 -33 -26 -24 -25 -85 -88 -103
-7 -9 -1 -3 -2 -2 -3 -2 -3 -1 -3 -3 -1 -2 -2 -2 -6 -5 -5 -14 -55 -101 -130 -172 -193 -199 -176 -106 -72 -58 -60 -47 -31 -39 -74 0 0 -91
-5 -2 -4 -5 -4 -2 -1 -2 -3 -9 -2 -5 -2 -2 -1 -2 -1 -1 -1 -1 -3 -52 -105 -150 -190 -90 -136 -127 -102 -70 -54 -47 -40 -57 -125 0 0 -81
-6 -5 -3 -1 -1 -2 -2 -2 -4 -3 -2 -2 -10 -4 -2 -2 -2 -1 -3 -1 -6 -38 -51 -92 -156 -166 -140 -139 -121 -97 -71 -58 -56 -79 -164 0 -11 -9
-1 -2 -1 -1 -1 -1 -2 -2 -3 -2 -4 -2 -2 -6 -10 -2 -2 -1 -1 -1 -8 -44 -65 -89 -148 -158 -181 -180 -166 -139 -89 -80 -75 -110 -1 0 0 0
-1 -1 -2 -1 -1 -1 -2 -2 -2 -1 -1 -1 -3 -5 -4 -3 -11 -15 -2 -3 -2 -2 -11 -43 -85 -146 -183 -198 -152 0 -137 -102 -121 0 0 0 0 0
-1 -1 -1 -1 -12 -9 -4 -2 -1 -2 -1 -2 -2 -2 -1 -2 -13 -13 -2 -3 -15 -4 -2 -4 -2 -8 -25 -192 -135 -170 -40 0 0 0 0 0 0 0
-1 -1 -2 -7 -18 -58 -69 -85 -54 -3 -1 -2 -4 -5 -1 -6 -6 -4 -4 0 -1 -3 -5 -3 -1 -1 -1 -14 -58 -106 0 0 0 0 0 0 0 0
-10 -9 -11 -7 -10 -2 -52 -191 0 0 0 -26 -13 -1 0 -2 0 -2 -16 -1 0 -2 -8 -1 -9 -4 -16 -9 0 0 0 0 0 0 0 0 0 0
-52 -34 -9 -1 -1 -58 -124 -116 -122 -1 -1 0 0 0 -41 -46 -38 -34 -39 -36 -29 -21 -2 -1 -5 -34 0 0 0 0 0 0 0 0 0 0 0 0
-28 -8 -17 -75 -288 0 0 0 0 -1 0 0 0 0 0 0 0 0 0 0 0 0 -1 -1 -29 -3 0 0 0 0 0 0 0 0 0 0 0 0
-34 -79 -298 0 0 0 0 0 0 -1 0 0 0 0 -1 0 0 0 0 0 0 -2 -2 -1 -2 0 -2 0 0 0 0 0 0 0 0 0 0 0
-113 -97 -113 0 0 0 0 0 0 0 0 -1 -1 -2 -1 -2 -1 -2 -1 -1 -2 -1 -2 -1 -2 0 0 0 0 0 0 0 0 0 0 0 0 0
-181 -289 0 0 0 0 0 0 0 0 -1 -2 -2 -1 -2 -1 0 -2 -2 -1 -1 -1 -2 -5 -2 -1 0 0 0 0 0 0 0 0 0 0 0 0
-264 -24 0 0 0 0 0 0 0 -1 0 0 -1 -2 -1 0 0 0 -1 -10 0 0 -6 0 -10 -2 -1 0 0 0 0 0 0 0 0 0 0 0
0 0 0 0 0 0 0 0 0 -1 -2 -2 -2 0 0 0 0 0 0 -5 0 0 0 0 -3 -1 -2 0 0 0 0 0 0 0 0 0 0 0
0 0 0 0 0 -1 -2 -1 -1 0 -1 0 -1 -1 0 0 0 0 0 0 0 0 0 0 0 -2 -1 0 0 0 0 0 0 0 0 0 0 0
0 0 0 0 0 0 0 -1 -1 -1 0 -1 -4 0 0 0 0 0 0 0 0 0 0 0 0 0 0 0 0 0 0 0 0 0 0 0 0 0
0 0 0 0 0 0 -1 -1 -1 0 0 -1 0 0 0 0 0 0 0 0 0 0 0 0 0 0 0 0 0 0 0 0 0 0 0 0 0 0
0 0 0 0 0 0 -1 -1 -2 0 0 0 0 0 0 0 0 0 0 0 0 0 0 0 0 0 0 0 0 0 0 0 0 0 0 0 -1 0
0 0 0 0 0 0 -1 -1 -1 0 -1 0 0 -1 -1 0 0 0 0 0 0 0 0 0 0 0 0 0 0 0 0 0 0 0 0 0 0 0
0 0 0 0 0 0 -1 -1 0 -1 -1 -1 -1 -1 0 0 0 0 0 0 0 0 0 0 0 0 0 0 0 0 0 0 0 0 0 0 0 0
0 0 0 0 0 0 0 -2 -2 -2 -1 -1 0 0 -1 0 0 0 0 0 0 0 0 0 0 0 0 0 0 0 0 0 0 0 0 0 0 0
Wind_Speed
13 10 8 16 15 17 16 17 18 19 16 14 17 15 16 19 18 17 13 10 7 7 6 4 4 4 0 1 2 3 3 4 4 6 9 11 12 15
9 8 11 17 18 15 17 15 14 16 18 21 16 18 20 21 16 16 14 14 7 6 6 6 6 7 5 5 5 6 6 7 6 8 10 13 14 15
10 11 3 5 14 18 15 16 15 15 12 13 16 18 15 18 18 17 16 11 10 4 4 4 5 6 8 7 7 7 8 8 9 12 14 15 15 16
20 9 2 14 13 19 19 13 16 19 14 11 18 18 13 16 15 15 14 12 12 6 5 7 6 6 8 9 9 9 9 8 7 5 6 7 7 10
21 7 1 0 10 10 17 25 17 12 11 12 18 17 19 18 17 13 13 11 11 11 11 10 8 7 8 9 9 9 9 8 7 5 5 6 6 7
12 9 5 3 8 10 7 13 13 17 18 18 20 21 17 19 17 21 18 10 11 12 13 15 15 14 11 11 11 10 10 9 7 6 5 5 4 5
15 7 3 4 5 5 6 15 18 15 18 23 23 24 22 22 13 13 15 20 24 17 17 16 15 14 14 14 13 9 8 8 6 5 5 7 5 5
28 27 20 5 7 7 9 9 16 17 15 22 32 32 31 31 27 28 26 22 20 18 14 17 12 16 15 15 14 11 6 5 6 6 6 6 6 5
33 35 35 7 19 20 17 18 19 18 21 25 29 29 32 32 30 28 29 27 23 22 20 22 18 17 18 18 14 10 7 4 4 4 5 4 2 2
28 32 13 22 21 19 18 21 22 19 20 20 21 29 35 34 32 30 31 34 31 26 22 18 21 21 21 21 16 11 7 4 4 3 2 1 0 2
17 23 22 21 20 20 21 21 21 20 21 19 15 22 34 36 33 36 35 34 35 30 21 17 20 20 20 19 19 13 7 3 3 2 1 1 4 5
23 23 22 23 21 22 22 21 22 22 20 20 15 15 28 31 25 27 33 32 34 33 26 17 18 17 19 18 17 15 9 5 3 1 2 4 7 4
23 23 24 17 19 20 20 20 20 22 23 19 22 23 23 24 26 23 27 30 34 29 23 19 16 14 17 15 16 15 10 7 6 1 2 7 7 5
25 27 25 20 22 21 20 19 18 17 18 21 22 26 24 26 27 28 30 31 29 29 26 23 18 13 13 14 14 12 10 8 5 4 2 3 3 2
28 26 24 25 24 21 15 14 15 15 17 19 22 24 26 28 28 25 25 26 28 28 25 23 19 14 10 12 12 8 6 8 7 4 4 3 2 2
29 26 25 22 21 18 14 11 11 17 20 19 19 22 24 23 24 23 22 20 20 20 19 20 17 15 13 12 10 6 7 8 8 6 5 5 4 2
23 20 19 17 14 10 9 12 14 16 16 16 19 19 21 22 22 21 20 19 18 19 17 16 13 11 11 10 10 7 6 10 7 7 6 5 5 5
14 15 17 16 12 10 12 11 15 16 15 18 16 17 20 20 20 19 17 16 17 17 15 12 8 7 10 14 12 6 8 8 6 6 6 6 6 6
14 14 15 14 13 12 13 10 9 7 13 11 12 14 15 17 19 20 18 16 15 14 13 11 7 8 6 9 12 10 7 6 5 6 7 7 7 6
18 15 13 11 12 13 14 12 12 10 10 11 12 12 13 15 16 17 17 16 15 14 11 10 9 9 11 10 7 9 10 4 5 5 6 8 10 9
12 12 11 13 13 13 14 13 13 12 11 10 10 11 13 14 15 15 15 14 13 13 12 11 10 11 10 9 9 7 6 5 4 4 5 7 8 10
12 12 14 15 15 14 13 13 12 10 10 11 11 13 13 13 13 13 13 13 12 12 12 12 11 10 9 11 7 5 6 8 10 8 5 6 4 5
15 15 15 16 16 15 14 13 10 9 10 12 12 12 12 12 13 13 12 11 11 11 11 11 10 10 10 9 7 5 6 5 5 4 2 18 12 13
Wind_Direction
331 351 360 325 333 331 335 334 334 334 347 0 343 352 344 338 340 341 349 354 4 1 357 346 340 339 255 337 356 3 5 4 10 6 359 352 350 346
339 352 344 323 322 336 328 337 337 334 332 326 340 335 329 329 343 343 345 340 348 346 342 331 326 320 310 305 307 320 325 329 334 339 342 339 337 334
330 325 21 14 336 325 333 330 331 332 336 340 336 335 338 333 328 333 340 352 348 354 341 333 318 313 311 303 298 298 306 311 314 316 320 324 326 328
203 172 7 328 331 319 320 328 325 322 327 324 325 328 332 332 331 328 334 341 343 356 355 340 329 317 311 305 297 288 290 287 292 304 322 340 360 348
201 329 204 280 336 337 326 313 324 327 324 321 320 322 321 321 321 326 327 331 333 338 334 332 328 317 307 301 295 288 283 279 273 279 307 331 346 2
190 195 206 216 327 328 327 328 326 322 320 317 315 314 315 317 316 313 318 321 325 326 330 330 331 329 321 310 300 291 288 279 267 282 297 322 338 356
203 206 263 272 261 293 312 326 322 321 318 312 310 309 309 311 311 313 315 317 315 319 319 321 328 329 327 321 314 296 284 277 260 269 295 316 325 335
231 232 223 257 299 270 303 304 313 312 306 307 300 299 301 301 305 304 307 311 313 315 309 318 322 324 327 328 321 314 294 257 255 267 293 305 319 343
247 257 258 275 320 317 323 326 321 317 310 307 301 298 298 300 301 304 303 306 307 311 315 312 315 314 321 323 323 316 303 276 250 275 300 307 319 351
245 277 310 314 318 320 322 320 322 325 325 316 305 297 291 294 297 302 303 300 303 304 302 295 308 310 312 313 315 315 303 283 276 280 287 253 243 118
307 309 312 315 319 322 321 321 322 325 330 328 318 309 289 287 296 294 296 299 299 303 305 299 311 312 312 309 309 310 304 276 272 276 258 152 130 124
307 309 313 313 319 321 321 321 319 324 330 331 332 327 301 297 305 302 297 299 298 298 306 301 310 314 311 308 305 304 301 289 272 251 145 129 130 109
309 310 313 317 319 320 319 319 319 325 324 324 321 319 317 313 310 309 302 299 295 298 306 307 308 315 311 315 302 299 291 286 293 271 154 144 142 136
308 311 315 321 322 321 320 320 322 324 324 322 321 317 318 317 315 311 303 299 298 296 298 302 302 305 306 304 301 298 285 280 275 281 236 161 145 135
307 311 318 322 324 326 325 328 330 328 327 324 322 321 319 318 320 321 317 309 301 297 294 292 300 300 302 303 297 286 266 272 268 256 234 219 216 214
305 312 319 325 329 334 344 347 349 336 328 330 333 332 329 330 330 331 328 323 318 314 310 301 288 294 295 302 295 272 263 268 247 251 242 257 269 251
300 316 326 334 345 5 9 359 355 347 345 346 339 341 339 339 339 338 336 332 327 324 321 314 315 300 301 301 290 277 245 270 241 238 228 231 263 271
303 318 324 332 344 356 358 3 349 348 355 347 352 353 346 349 353 357 357 348 340 337 333 336 329 315 308 307 293 267 269 263 253 226 232 241 261 272
302 318 322 332 342 349 356 17 37 49 12 22 17 13 13 1 358 353 357 4 360 360 359 3 356 332 320 302 299 281 281 257 238 232 239 248 259 268
296 309 319 331 342 343 344 355 6 20 24 24 22 24 21 12 9 12 11 10 15 11 20 24 17 350 333 330 306 289 290 250 221 221 250 276 295 296
305 309 318 321 330 335 341 348 354 1 8 18 23 17 13 13 10 12 14 17 25 25 24 15 4 357 1 353 338 320 302 290 249 222 265 277 283 296
301 306 309 313 319 327 335 341 351 1 6 6 5 4 7 9 14 16 17 22 25 27 25 26 28 21 7 339 340 335 305 299 290 284 271 290 289 300
292 299 305 307 312 324 328 336 347 358 359 353 356 1 6 9 10 11 15 19 24 27 32 29 31 30 9 356 350 339 318 306 296 287 214 164 284 288